Location: Asheville, NC
(35.6000°N, 82.5500°W)
Time: 16:49:08
(UTC-04:00)

KKS-1 - Pass Details

Date: 12 February 2018
Orbit: 638 x 649 km, 98.4° (Epoch: 19 June)

Event Time Altitude Azimuth Distance (km) Brightness Sun altitude
Rises 05:55:45 0° 190° (S) 2,924 ? -17.7°
Reaches altitude 10° 05:58:09 10° 201° (SSW) 2,021 ? -17.2°
Maximum altitude 06:02:01 30° 263° (W) 1,160 ? -16.4°
Enters shadow 06:02:18 29° 270° (W) 1,168 ? -16.4°
